When you browse on this site, cookies collect data to enhance your experience and personalize the content and advertising you see.
Visit our Privacy Policy to learn more. By continuing to use the site, you agree to this use of cookies and data.
  • En España
  • Lista de países
  • Para 7 días
  • Temperatura del agua
  • Mapa Satelital
  • El tiempo en el mapa
  • Informadores
  • user-avatar
    Iniciar sesión

    Tiempo cada hora Andora

    Hoy, 18 Junio, Martes

    Tiempo Temperatura Precipitaciones Viento Presión Humedad
    00:00 +11°C° 0 mm 1 mps 624 mmHg 76%
    01:00 +11°C° 0 mm 1 mps 624 mmHg 74%
    02:00 +11°C° 0 mm 1 mps 624 mmHg 72%
    03:00 +11°C° 0 mm 1 mps 623 mmHg 70%
    04:00 +12°C° 0 mm 1 mps 624 mmHg 67%
    05:00 +13°C° 0 mm 1 mps 624 mmHg 63%
    06:00 +15°C° 0 mm 1 mps 625 mmHg 59%
    07:00 +18°C° 0 mm 1 mps 626 mmHg 52%
    08:00 +19°C° 0 mm 2 mps 626 mmHg 44%
    09:00 +21°C° 0 mm 2 mps 627 mmHg 36%
    10:00 +21°C° 0 mm 3 mps 627 mmHg 35%
    11:00 +22°C° 0 mm 3 mps 627 mmHg 33%
    12:00 +23°C° 0 mm 4 mps 627 mmHg 31%
    13:00 +23°C° 0 mm 4 mps 627 mmHg 32%
    14:00 +23°C° 0 mm 4 mps 627 mmHg 33%
    15:00 +22°C° 0 mm 4 mps 626 mmHg 34%
    16:00 +21°C° 0 mm 4 mps 626 mmHg 39%
    17:00 +20°C° 0 mm 3 mps 625 mmHg 44%
    18:00 +19°C° 0 mm 2 mps 625 mmHg 49%
    19:00 +17°C° 0 mm 2 mps 624 mmHg 54%
    20:00 +14°C° 0 mm 1 mps 623 mmHg 60%
    21:00 +12°C° 0 mm 1 mps 623 mmHg 65%
    22:00 +12°C° 0 mm 1 mps 623 mmHg 64%
    23:00 +11°C° 0 mm 1 mps 623 mmHg 63%

    Mañana, 19 Junio, Miércoles

    Tiempo Temperatura Precipitaciones Viento Presión Humedad
    00:00 +11°C° 0 mm 1 mps 623 mmHg 62%
    01:00 +11°C° 0 mm 1 mps 622 mmHg 60%
    02:00 +11°C° 0 mm 1 mps 622 mmHg 57%
    03:00 +11°C° 0 mm 1 mps 622 mmHg 55%
    04:00 +12°C° 0 mm 1 mps 623 mmHg 55%
    05:00 +13°C° 0 mm 1 mps 624 mmHg 55%
    06:00 +14°C° 0 mm 1 mps 624 mmHg 55%
    07:00 +16°C° 0 mm 1 mps 625 mmHg 47%
    08:00 +18°C° 0 mm 2 mps 626 mmHg 39%
    09:00 +20°C° 0 mm 2 mps 626 mmHg 31%
    10:00 +21°C° 0 mm 3 mps 627 mmHg 30%
    11:00 +21°C° 0 mm 3 mps 627 mmHg 29%
    12:00 +22°C° 0 mm 3 mps 627 mmHg 28%
    13:00 +22°C° 0 mm 3 mps 626 mmHg 29%
    14:00 +22°C° 0 mm 3 mps 626 mmHg 30%
    15:00 +22°C° 0 mm 3 mps 626 mmHg 31%
    16:00 +21°C° 0 mm 3 mps 625 mmHg 38%
    17:00 +20°C° 0 mm 2 mps 625 mmHg 45%
    18:00 +19°C° 0 mm 2 mps 624 mmHg 52%
    19:00 +18°C° 0 mm 1 mps 624 mmHg 57%
    20:00 +15°C° 0 mm 1 mps 623 mmHg 62%
    21:00 +12°C° 0 mm 0 mps 623 mmHg 67%
    22:00 +12°C° 0 mm 0 mps 623 mmHg 67%
    23:00 +12°C° 0 mm 1 mps 623 mmHg 68%

    Pasado mañana, 20 Junio, Jueves

    Tiempo Temperatura Precipitaciones Viento Presión Humedad
    00:00 +12°C° 0 mm 1 mps 623 mmHg 68%
    01:00 +12°C° 0 mm 1 mps 623 mmHg 70%
    02:00 +11°C° 0 mm 0 mps 623 mmHg 71%
    03:00 +10°C° 0 mm 0 mps 623 mmHg 73%
    04:00 +11°C° 0 mm 0 mps 623 mmHg 72%
    05:00 +13°C° 0 mm 1 mps 624 mmHg 71%
    06:00 +14°C° 0 mm 1 mps 624 mmHg 71%
    07:00 +15°C° 0 mm 1 mps 625 mmHg 64%
    08:00 +17°C° 0 mm 2 mps 626 mmHg 56%
    09:00 +18°C° 0 mm 2 mps 627 mmHg 49%
    10:00 +19°C° 0 mm 3 mps 627 mmHg 47%
    11:00 +20°C° 0 mm 4 mps 627 mmHg 45%
    12:00 +21°C° 0 mm 4 mps 627 mmHg 42%
    13:00 +20°C° 0.1 mm 4 mps 627 mmHg 48%
    14:00 +19°C° 0.1 mm 4 mps 626 mmHg 54%
    15:00 +18°C° 0.1 mm 4 mps 626 mmHg 61%
    16:00 +17°C° 1.4 mm 3 mps 625 mmHg 71%
    17:00 +15°C° 1.4 mm 2 mps 625 mmHg 82%
    18:00 +14°C° 1.4 mm 1 mps 624 mmHg 92%
    19:00 +13°C° 1.8 mm 1 mps 624 mmHg 93%
    20:00 +12°C° 1.8 mm 1 mps 624 mmHg 94%
    21:00 +11°C° 1.8 mm 1 mps 624 mmHg 95%
    22:00 +11°C° 0 mm 1 mps 624 mmHg 94%
    23:00 +11°C° 0 mm 1 mps 624 mmHg 94%

    21 Junio, Viernes

    Tiempo Temperatura Precipitaciones Viento Presión Humedad
    00:00 +11°C° 0 mm 1 mps 624 mmHg 93%
    01:00 +11°C° 0 mm 1 mps 624 mmHg 92%
    02:00 +9°C° 0 mm 0 mps 624 mmHg 91%
    03:00 +9°C° 0 mm 0 mps 624 mmHg 90%
    04:00 +10°C° 0.1 mm 0 mps 624 mmHg 90%
    05:00 +10°C° 0.1 mm 0 mps 625 mmHg 90%
    06:00 +11°C° 0.1 mm 0 mps 625 mmHg 90%
    07:00 +13°C° 0.5 mm 1 mps 625 mmHg 86%
    08:00 +15°C° 0.5 mm 1 mps 626 mmHg 83%
    09:00 +16°C° 0.5 mm 2 mps 626 mmHg 79%
    10:00 +16°C° 1.1 mm 2 mps 627 mmHg 79%
    11:00 +16°C° 1.1 mm 2 mps 627 mmHg 79%
    12:00 +17°C° 1.1 mm 2 mps 627 mmHg 79%
    13:00 +16°C° 1.6 mm 2 mps 626 mmHg 81%
    14:00 +16°C° 1.6 mm 2 mps 626 mmHg 83%
    15:00 +15°C° 1.6 mm 2 mps 625 mmHg 85%
    16:00 +15°C° 2.2 mm 1 mps 625 mmHg 88%
    17:00 +14°C° 2.2 mm 1 mps 625 mmHg 91%
    18:00 +13°C° 2.2 mm 1 mps 625 mmHg 93%
    19:00 +13°C° 0.7 mm 1 mps 625 mmHg 94%
    20:00 +12°C° 0.7 mm 1 mps 625 mmHg 94%
    21:00 +11°C° 0.7 mm 1 mps 625 mmHg 95%
    22:00 +11°C° 0 mm 1 mps 625 mmHg 95%
    23:00 +10°C° 0 mm 0 mps 625 mmHg 94%

    22 Junio, Sábado

    Tiempo Temperatura Precipitaciones Viento Presión Humedad
    00:00 +9°C° 0 mm 0 mps 625 mmHg 94%
    01:00 +9°C° 0 mm 0 mps 624 mmHg 93%
    02:00 +10°C° 0 mm 1 mps 624 mmHg 93%
    03:00 +10°C° 0 mm 1 mps 624 mmHg 93%
    04:00 +11°C° 0 mm 1 mps 624 mmHg 92%
    05:00 +11°C° 0 mm 1 mps 625 mmHg 91%
    06:00 +12°C° 0 mm 1 mps 625 mmHg 90%
    07:00 +14°C° 0.1 mm 1 mps 626 mmHg 83%
    08:00 +16°C° 0.1 mm 1 mps 627 mmHg 76%
    09:00 +18°C° 0.1 mm 2 mps 627 mmHg 69%
    10:00 +18°C° 0.2 mm 2 mps 627 mmHg 64%
    11:00 +19°C° 0.2 mm 2 mps 628 mmHg 58%
    12:00 +20°C° 0.2 mm 3 mps 628 mmHg 53%
    13:00 +20°C° 0.1 mm 3 mps 627 mmHg 52%
    14:00 +20°C° 0.1 mm 3 mps 627 mmHg 51%
    15:00 +20°C° 0.1 mm 3 mps 627 mmHg 51%
    16:00 +20°C° 0.1 mm 2 mps 626 mmHg 56%
    17:00 +19°C° 0.1 mm 2 mps 626 mmHg 61%
    18:00 +19°C° 0.1 mm 1 mps 626 mmHg 66%
    19:00 +16°C° 0 mm 1 mps 625 mmHg 70%
    20:00 +15°C° 0 mm 1 mps 625 mmHg 75%
    21:00 +13°C° 0 mm 1 mps 624 mmHg 80%
    22:00 +13°C° 0 mm 1 mps 624 mmHg 81%
    23:00 +12°C° 0 mm 1 mps 624 mmHg 82%

    23 Junio, Domingo

    Tiempo Temperatura Precipitaciones Viento Presión Humedad
    00:00 +12°C° 0 mm 1 mps 624 mmHg 83%
    01:00 +12°C° 0 mm 1 mps 624 mmHg 81%
    02:00 +12°C° 0 mm 1 mps 623 mmHg 80%
    03:00 +12°C° 0 mm 1 mps 623 mmHg 78%
    04:00 +13°C° 0 mm 1 mps 624 mmHg 74%
    05:00 +14°C° 0 mm 1 mps 624 mmHg 70%
    06:00 +15°C° 0 mm 1 mps 625 mmHg 66%
    07:00 +17°C° 0 mm 2 mps 626 mmHg 56%
    08:00 +19°C° 0 mm 2 mps 627 mmHg 47%
    09:00 +23°C° 0 mm 2 mps 627 mmHg 38%
    10:00 +22°C° 0 mm 3 mps 628 mmHg 37%
    11:00 +24°C° 0 mm 3 mps 628 mmHg 35%
    12:00 +25°C° 0 mm 3 mps 628 mmHg 34%
    13:00 +25°C° 0 mm 3 mps 628 mmHg 35%
    14:00 +25°C° 0 mm 3 mps 628 mmHg 36%
    15:00 +25°C° 0 mm 3 mps 628 mmHg 36%
    16:00 +24°C° 0 mm 3 mps 627 mmHg 42%
    17:00 +23°C° 0 mm 2 mps 627 mmHg 49%
    18:00 +21°C° 0 mm 2 mps 627 mmHg 55%
    19:00 +19°C° 0 mm 2 mps 626 mmHg 59%
    20:00 +17°C° 0 mm 2 mps 626 mmHg 63%
    21:00 +15°C° 0 mm 2 mps 625 mmHg 68%
    22:00 +15°C° 0 mm 2 mps 625 mmHg 66%
    23:00 +15°C° 0 mm 2 mps 625 mmHg 64%
    Mostrar más